Flag for West Bank Weather past 2 weeks in Tulkarm, West Bank

Now
61 °F

Passing clouds.


Feels Like: 61 °F
Forecast: 53 / 65 °F
Wind: 9 mph from Northwest

Location: Dov Airport

Current Time: Mar 1, 2015 at 10:27:34 PM

Latest Report: Mar 1, 2015 at 9:50 PM


Visibility: N/A

Pressure: 30.04 "Hg

Humidity: 68%

Dew point: 50 °F

Location of TulkarmLocation

Historic Weather in Tulkarm — Graph

°F

Tulkarm temperature yesterday

Maximum temperature yesterday: 66 °F (at 12:50 PM)
Minimum temperature yesterday: 59 °F (at 11:50 PM)
Average temperature yesterday: 63 °F

Past Weeks' High & Low Weather Summary

 TemperatureHumidityPressure
High82 °F (Feb 27, 11:50 AM)94% (Feb 16, 4:00 AM)30.18 "Hg (Feb 16, 4:00 AM)
Low46 °F (Feb 20, 8:50 AM)17% (Feb 27, 11:50 AM)29.65 "Hg (Feb 20, 6:50 AM)
Average60 °F62%29.98 "Hg
* Reported Feb 14 8:50 PM — Mar 1 8:50 PM, Tulkarm, Weather by CustomWeather, © 2015

Note: Actual official high and low records may vary slightly from our data, if they occured in-between our weather recording intervals... More about our weather records

Advertising

Tulkarm weather history for previous 24 hours

 ConditionsComfort  
Time TempWeatherWind HumidityBarometerVisibility
8:50 PM
Sun, Mar 1
63 °FPassing clouds.9 mph64%30.07 "HgN/A
7:50 PM63 °FPassing clouds.8 mph64%30.04 "HgN/A
6:50 PM63 °FPassing clouds.8 mph64%30.04 "HgN/A
5:50 PM63 °FClear.9 mph64%30.01 "Hg10 mi
4:50 PM64 °FPassing clouds.9 mph60%30.01 "HgN/A
3:50 PM64 °FPassing clouds.12 mph60%30.01 "HgN/A
2:50 PM64 °FSunny.12 mph60%30.04 "Hg10 mi
1:50 PM64 °FSunny.12 mph60%30.04 "Hg10 mi
12:50 PM63 °FPassing clouds.10 mph64%30.07 "HgN/A
11:50 AM64 °FPassing clouds.10 mph60%30.07 "HgN/A
10:50 AM63 °FPassing clouds.9 mph64%30.09 "HgN/A
9:50 AM63 °FPassing clouds.8 mph59%30.09 "HgN/A
8:50 AM61 °FPassing clouds.3 mph63%30.09 "HgN/A
7:50 AM59 °FPassing clouds.3 mph68%30.09 "HgN/A
6:50 AM55 °FScattered clouds.5 mph72%30.09 "HgN/A
5:50 AM55 °FPassing clouds.3 mph72%30.07 "HgN/A
11:50 PM
Sat, Feb 28
59 °FPassing clouds.5 mph68%30.09 "HgN/A
10:50 PM61 °FPassing clouds.1 mph63%30.09 "HgN/A
Weather by CustomWeather, © 2015

See weather overviewHow to use our weather pages